Weather History for KRTN - November, 2011

Change the Weather History Date:

Thursday, November 24, 2011

  Actual Average (KTAD) Record (KTAD)
Temperature  
Mean Temperature 46 °F 37 °F  
Max Temperature 70 °F 52 °F 76 °F (1981)
Min Temperature 23 °F 22 °F -2 °F (1993)
Degree Days  
Heating Degree Days 18 28  
Month to date heating degree days 553  
Since 1 July heating degree days 1054  
Cooling Degree Days 0 0  
Month to date cooling degree days 0  
Year to date cooling degree days 719  
Moisture  
Dew Point 13 °F    
Average Humidity 35    
Maximum Humidity 72    
Minimum Humidity 9    
Precipitation  
Precipitation 0.00 in 0.02 in 0.62 in (1992)
Month to date precipitation 0.58  
Year to date precipitation 13.18  
Sea Level Pressure  
Sea Level Pressure 29.97 in    
Wind  
Wind Speed 6 mph (NW)    
Max Wind Speed 13 mph    
Max Gust Speed -    
Visibility 10 miles    
Events      
T = Trace of Precipitation, MM = Missing Value Source: NWS Daily Summary

Daily Weather History Graph

Daily Weather History Graph

Search for Another Location

Airport or City:

Trip Planner

Search our weather history database for the weather conditions in past years. The results will help you decide how hot, cold, wet, or windy it might be!

Date:

Astronomy

Nov. 24, 2011 Rise Set
Actual Time 6:44 AM MST 4:44 PM MST
Civil Twilight 6:16 AM MST 5:12 PM MST
Nautical Twilight 5:45 AM MST 5:43 PM MST
Astronomical Twilight 5:14 AM MST 6:14 PM MST
Moon 6:05 AM MST (11/24) 4:17 PM MST (11/24)
Length of Visible Light 10h 55m
Length of Day
9h 59m
Waning Crescent, 0% of the Moon is Illuminated
Nov 24
Waning Crescent
Nov 24
New
Dec 2
First Quarter
Dec 10
Full
Dec 17
Last Quarter

Hourly Weather History & Observations

Time (MST) Temp. Windchill Dew Point Humidity Pressure Visibility Wind Dir Wind Speed Gust Speed Precip Events Conditions
12:53 AM 28.0 °F 24.2 °F 17.1 °F 63% 30.09 in 10.0 mi NE 3.5 mph - N/A   Clear
1:53 AM 28.9 °F 23.9 °F 18.0 °F 64% 30.06 in 10.0 mi NE 4.6 mph - N/A   Clear
2:53 AM 26.1 °F 18.4 °F 16.0 °F 66% 30.06 in 10.0 mi ENE 6.9 mph - N/A   Clear
3:53 AM 25.0 °F 15.5 °F 16.0 °F 69% 30.05 in 10.0 mi North 9.2 mph - N/A   Clear
4:53 AM 28.9 °F 23.9 °F 18.0 °F 64% 30.06 in 10.0 mi ENE 4.6 mph - N/A   Clear
5:53 AM 24.1 °F 17.0 °F 16.0 °F 71% 30.09 in 10.0 mi NE 5.8 mph - N/A   Clear
6:53 AM 23.0 °F 14.7 °F 15.1 °F 72% 30.09 in 10.0 mi ENE 6.9 mph - N/A   Clear
7:53 AM 30.9 °F 24.3 °F 19.0 °F 61% 30.09 in 10.0 mi North 6.9 mph - N/A   Clear
8:53 AM 39.9 °F 35.1 °F 19.9 °F 45% 30.05 in 10.0 mi NE 6.9 mph - N/A   Clear
9:53 AM 50.0 °F - 21.0 °F 32% 30.00 in 10.0 mi NE 4.6 mph - N/A   Clear
10:53 AM 55.9 °F - 17.1 °F 22% 29.96 in 10.0 mi Calm Calm - N/A   Clear
11:53 AM 60.1 °F - 19.0 °F 20% 29.93 in 10.0 mi South 9.2 mph - N/A   Clear
12:53 PM 62.1 °F - 17.1 °F 18% 29.92 in 10.0 mi SSW 9.2 mph - N/A   Clear
1:53 PM 66.0 °F - 12.9 °F 13% 29.88 in 10.0 mi SSW 12.7 mph - N/A   Clear
2:53 PM 70.0 °F - 8.1 °F 9% 29.87 in 10.0 mi SW 3.5 mph - N/A   Clear
3:53 PM 66.0 °F - 6.1 °F 9% 29.88 in 10.0 mi SSW 9.2 mph - N/A   Clear
4:53 PM 55.9 °F - 3.9 °F 12% 29.90 in 10.0 mi West 5.8 mph - N/A   Clear
5:53 PM 52.0 °F - 5.0 °F 15% 29.96 in 10.0 mi WSW 4.6 mph - N/A   Clear
6:53 PM 54.0 °F - 1.0 °F 12% 29.96 in 10.0 mi WNW 12.7 mph - N/A   Clear
7:53 PM 51.1 °F - 3.9 °F 15% 29.94 in 10.0 mi West 10.4 mph - N/A   Clear
8:53 PM 50.0 °F - 5.0 °F 16% 29.91 in 10.0 mi Calm Calm - N/A   Clear
9:53 PM 46.9 °F - 6.1 °F 19% 29.87 in 10.0 mi South 3.5 mph - N/A   Clear
10:53 PM 44.1 °F - 10.9 °F 26% 29.84 in 10.0 mi Calm Calm - N/A   Scattered Clouds
11:53 PM 44.1 °F 39.5 °F 12.9 °F 28% 29.83 in 10.0 mi WSW 8.1 mph - N/A   Scattered Clouds